[[{"header":{"parameterUnit":"m.s-1","parameterCategory":2,"la1":30.2991,"la2":30.254,"lo1":-89.0895,"lo2":-89.0444,"dy":0.0017,"dx":0.0017,"nx":28,"ny":28,"refTime":"2024-03-14T09:00:00:Z","depth":"0","parameterNumber":2,"parameterNumberName":"U-component_of_CURRENTS"},"data":[0,0,0,0,0,0,0,0,0,0,0,0,0,0,0,0,0,0,0,0,0,0,0,0,0,0,0,0,0,0,0,0,0,0,0,0,0,0,0,0,0,0,0,0,0,0,0,0,0,0,0,0,0,0,0,0,0,0,0.3199,0.3199,0,0.3216,0.3216,0.3216,0.3206,0.3206,0.3206,0.3206,0.3205,0.3205,0.3205,0,0,0,0,0,0,0,0,0,0,0,0,0,0.3151,0.3152,0.3199,0.3199,0.32,0.3216,0.3216,0.3216,0.3206,0.3206,0.3206,0.3205,0.3205,0.3205,0.3205,0,0,0,0,0,0,0,0,0,0,0,0,0,0.3167,0.3152,0.3198,0.3199,0.32,0.3216,0.3216,0.3216,0.3206,0.3206,0.3206,0.3205,0.3205,0.3205,0.3205,0.3212,0,0,0.3206,0.3206,0,0,0,0,0,0,0,0,0.3167,0.3169,0.3198,0.3199,0.32,0.3212,0.3199,0.3215,0.3206,0.32,0.3206,0.3205,0.3208,0.3208,0.3207,0.3212,0.3212,0.3206,0.3206,0.3206,0.3206,0,0,0,0,0,0,0,0.3165,0.3168,0.3202,0.3199,0.32,0.3197,0.3199,0.3202,0.3202,0.3201,0.3201,0.3208,0.3208,0.3207,0.3207,0.3212,0.3206,0.3206,0.3206,0.3206,0.3259,0.326,0,0,0,0,0,0,0.3171,0.3167,0.3202,0.3203,0.3186,0.3198,0.32,0.3205,0.3203,0.3203,0.3208,0.3208,0.3207,0.3207,0.3207,0.3252,0.3206,0.3206,0.3207,0.3258,0.3259,0.3261,0,0,0,0,0,0,0.317,0.3174,0.3201,0.3188,0.3192,0.32,0.3206,0.3206,0.3211,0.321,0.3209,0.3214,0.3207,0.3207,0.3218,0.3251,0.3207,0.3207,0.3256,0.3258,0.326,0.3319,0,0,0,0,0,0,0.3168,0.3173,0.3177,0.3188,0.3193,0.3217,0.3206,0.3207,0.3217,0.3217,0.3214,0.3214,0.3206,0.3218,0.3218,0.325,0.3207,0.3255,0.3257,0.3259,0.3315,0.3322,0.3328,0,0,0,0,0,0.3166,0.3176,0.3177,0.3181,0.3198,0.3218,0.322,0.3222,0.3218,0.3224,0.3224,0.3214,0.3234,0.3219,0.3219,0.3252,0.3254,0.3256,0.3259,0.3312,0.3321,0.3328,0,0,0,0,0,0,0.3155,0.3177,0.3178,0.3192,0.3207,0.3218,0.3227,0.3228,0.3232,0.3232,0.3224,0.3224,0.3252,0.324,0.3224,0.3274,0.3245,0.3248,0.3285,0.3293,0.33,0.331,0.3207,0,0,0,0,0,0.3156,0.317,0.3188,0.32,0.321,0.3219,0.3227,0.323,0.3238,0.3239,0.324,0.3245,0.3264,0.3267,0.3277,0.3296,0.3319,0.3319,0.3326,0.3332,0.3341,0.3401,0.3414,0.327,0.327,0.327,0,0,0.3155,0.317,0.3177,0.3199,0.321,0.3233,0.3222,0.3241,0.3261,0.3239,0.3263,0.327,0.3275,0.3304,0.3316,0.3297,0.3389,0.3335,0.334,0.3347,0.3405,0.342,0.3432,0.3272,0.3272,0.3271,0,0,0.3169,0.3175,0.3195,0.3209,0.3234,0.3245,0.3253,0.327,0.3277,0.3297,0.33,0.3325,0.3334,0.3355,0.3365,0.3413,0.3426,0.3417,0.3455,0.3513,0.3526,0.3537,0.3603,0.3619,0.3415,0.3415,0.3415,0,0.317,0.3189,0.3203,0.3228,0.3234,0.3254,0.327,0.3294,0.3311,0.3326,0.3311,0.3363,0.3364,0.3421,0.3437,0.3431,0.3467,0.3423,0.3523,0.3535,0.3545,0.3609,0.3627,0.3418,0.3418,0.3418,0.3417,0,0.3199,0.3212,0.3226,0.3262,0.3274,0.3291,0.3321,0.3343,0.3352,0.3377,0.3427,0.3435,0.3465,0.3477,0.3469,0.3551,0.3555,0.353,0.3504,0.3564,0.3627,0.3645,0.3423,0.3422,0.3421,0.342,0,0,0.32,0.3238,0.3241,0.3257,0.3284,0.3305,0.334,0.3382,0.343,0.345,0.3499,0.3538,0.3552,0.3564,0.3571,0.3619,0.3726,0.3607,0.3608,0.3675,0.3873,0.386,0.3878,0.3722,0.3725,0.3727,0.3894,0,0.3213,0.3255,0.3263,0.3301,0.332,0.3336,0.3377,0.3422,0.3458,0.3519,0.355,0.3603,0.3586,0.3606,0.3656,0.372,0.3772,0.3684,0.3802,0.3806,0.379,0.3897,0.3756,0.3892,0.3911,0.3914,0.3916,0,0.3225,0.3254,0.3282,0.3323,0.3335,0.3365,0.3424,0.3467,0.3556,0.3584,0.3639,0.3666,0.3754,0.371,0.3861,0.3809,0.3844,0.3881,0.3888,0.3866,0.3825,0.3832,0.3922,0.3819,0.3943,0.394,0.3939,0,0.3215,0.3258,0.3279,0.3291,0.3352,0.337,0.3409,0.3489,0.3542,0.3633,0.3687,0.3773,0.3854,0.3901,0.3982,0.3928,0.4148,0.4075,0.4098,0.4097,0.3995,0.3981,0.4,0.4165,0.4165,0.4164,0.4164,0,0.3215,0.3233,0.3284,0.3303,0.3352,0.3385,0.3454,0.3508,0.3599,0.3685,0.3732,0.3827,0.3909,0.4028,0.4042,0.4163,0.4203,0.4141,0.4151,0.4013,0.3999,0.3916,0.3869,0.417,0.4169,0.4168,0.4167,0,0.3198,0.3227,0.3265,0.3328,0.3349,0.3391,0.3473,0.3527,0.3628,0.3736,0.3765,0.393,0.4092,0.4168,0.4301,0.4281,0.4241,0.4366,0.4209,0.4196,0.4067,0.4029,0.3928,0.3811,0.4406,0.4407,0.4408,0,0.3188,0.3208,0.3277,0.3299,0.3326,0.3388,0.3424,0.3524,0.3577,0.3799,0.3846,0.4057,0.4167,0.4389,0.4411,0.4465,0.4305,0.4347,0.4196,0.4079,0.4045,0.3856,0.3749,0.4096,0.4094,0.4092,0.4091,0,0.3171,0.3198,0.3229,0.3282,0.332,0.3364,0.3425,0.348,0.361,0.373,0.3914,0.4028,0.4257,0.4291,0.4391,0.4385,0.4136,0.4316,0.423,0.385,0.361,0.3494,0.3978,0.4077,0.4079,0.408,0.408,0.4081,0.314,0.3162,0.3204,0.3242,0.3282,0.3315,0.3322,0.3404,0.3512,0.3643,0.3865,0.3984,0.4122,0.4251,0.4226,0.4113,0.4071,0.3972,0.3957,0.3791,0.36,0.4069,0.4149,0.4151,0.4152,0.4153,0.4155,0,0.3089,0.3119,0.3155,0.3186,0.3185,0.3238,0.3287,0.327,0.3343,0.3529,0.3672,0.3816,0.3857,0.3902,0.3903,0.3776,0.3546,0.3671,0.3358,0.3286,0.3751,0.3658,0.359,0.359,0.359,0.359,0.359,0.3591,0.306,0.3072,0.3091,0.3068,0.3081,0.3035,0.3038,0.3047,0.3129,0.3223,0.3295,0.3433,0.3604,0.3705,0.3597,0.3501,0.3221,0.3093,0.3072,0.3404,0.3428,0.3451,0.3351,0.3219,0.3219,0.2435,0.243,0.2426]},{"header":{"parameterUnit":"m.s-1","parameterCategory":2,"la1":30.2991,"la2":30.254,"lo1":-89.0895,"lo2":-89.0444,"dy":0.0017,"dx":0.0017,"nx":28,"ny":28,"refTime":"2024-03-14T09:00:00:Z","depth":"0","parameterNumber":3,"parameterNumberName":"V-component_of_CURRENTS"},"data":[0,0,0,0,0,0,0,0,0,0,0,0,0,0,0,0,0,0,0,0,0,0,0,0,0,0,0,0,0,0,0,0,0,0,0,0,0,0,0,0,0,0,0,0,0,0,0,0,0,0,0,0,0,0,0,0,0,0,0.0085,0.0084,0,0.0023,0.0022,0.0021,-0.0028,-0.0028,-0.0029,-0.0029,-0.0116,-0.0118,-0.012,0,0,0,0,0,0,0,0,0,0,0,0,0,0.0106,0.0106,0.0085,0.0084,0.0084,0.0023,0.0022,0.0021,-0.0028,-0.0028,-0.0029,-0.0029,-0.0116,-0.0118,-0.012,0,0,0,0,0,0,0,0,0,0,0,0,0,0.0075,0.0106,0.0085,0.0053,0.005,0.0023,0.0022,0.0021,-0.0028,-0.0028,-0.0029,-0.0029,-0.0115,-0.0118,-0.0121,-0.0128,0,0,-0.013,-0.0131,0,0,0,0,0,0,0,0,0.0076,0.0074,0.0058,0.0055,0.0051,0.0006,-0.0003,-0.003,-0.0028,0.0,-0.0029,-0.003,-0.0077,-0.0083,-0.0095,-0.0132,-0.0136,-0.013,-0.0132,-0.0133,-0.0134,0,0,0,0,0,0,0,0.0079,0.0076,0.0059,0.0058,0.0053,0.0023,0.0018,-0.0008,-0.0036,-0.0002,-0.0006,-0.001,-0.0079,-0.0092,-0.0097,-0.0137,-0.013,-0.0133,-0.0135,-0.0136,-0.0183,-0.0182,0,0,0,0,0,0,0.0093,0.0078,0.0061,0.0057,0.0064,0.0023,0.0018,0.002,-0.0035,-0.0043,-0.001,-0.0012,-0.0086,-0.0094,-0.01,-0.0096,-0.0133,-0.0136,-0.0138,-0.0183,-0.0183,-0.0182,0,0,0,0,0,0,0.0093,0.0092,0.0064,0.0067,0.0061,0.0024,0.0026,0.0019,0.001,-0.004,-0.005,-0.0011,-0.0087,-0.0096,-0.0115,-0.01,-0.0137,-0.014,-0.0184,-0.0183,-0.0182,-0.0097,0,0,0,0,0,0,0.0094,0.0093,0.0098,0.0068,0.0062,0.0061,0.0027,0.0018,0.0008,0.0004,-0.0044,-0.0053,-0.0088,-0.011,-0.0118,-0.0105,-0.0142,-0.0185,-0.0184,-0.0183,-0.01,-0.0093,-0.0087,0,0,0,0,0,0.0095,0.0113,0.0099,0.0097,0.0071,0.0061,0.0056,0.0025,0.0009,0.0014,-0.002,-0.0051,-0.0109,-0.0111,-0.0121,-0.0109,-0.0185,-0.0184,-0.0183,-0.0103,-0.0095,-0.0087,0,0,0,0,0,0,0.0126,0.0109,0.0093,0.0104,0.0088,0.0054,0.0055,0.0034,0.0011,0.0006,-0.0043,-0.0054,-0.0069,-0.0098,-0.01,-0.012,-0.0153,-0.0153,-0.0089,-0.0082,-0.0075,-0.0049,-0.0145,0,0,0,0,0,0.0136,0.0143,0.0119,0.0128,0.0123,0.009,0.0081,0.0064,0.0039,0.0027,-0.0007,-0.0043,-0.0071,-0.0083,-0.0116,-0.012,-0.0139,-0.012,-0.0113,-0.0107,-0.0093,-0.0109,-0.0102,-0.0178,-0.0178,-0.0178,0,0,0.015,0.0141,0.0144,0.0134,0.0117,0.0126,0.0084,0.0081,0.0086,0.0022,0.0018,-0.0023,-0.0069,-0.008,-0.0088,-0.01,-0.0094,-0.0106,-0.01,-0.0089,-0.0107,-0.01,-0.0093,-0.0177,-0.0178,-0.0178,0,0,0.0185,0.0174,0.0192,0.0184,0.0169,0.0155,0.016,0.0132,0.0118,0.0109,0.0062,0.0038,-0.0006,-0.0031,-0.0051,-0.0025,-0.0063,-0.0042,0.002,0.0004,0.001,0.0016,0.0013,0.0018,-0.0032,-0.0032,-0.0032,0,0.0201,0.0221,0.0196,0.021,0.0214,0.0176,0.02,0.0183,0.0152,0.0151,0.0119,0.0064,0.002,0.0016,0.0019,-0.0008,-0.0021,-0.0005,0.0014,0.0019,0.0023,0.0019,0.0023,-0.0028,-0.0028,-0.0029,-0.0029,0,0.0245,0.0263,0.0275,0.0284,0.0285,0.0301,0.0278,0.0273,0.025,0.0235,0.0219,0.0157,0.0128,0.0106,0.0068,0.0077,0.0058,0.0021,-0.0001,0.0037,0.0029,0.0032,-0.0022,-0.0023,-0.0024,-0.0026,0,0,0.0283,0.0304,0.0309,0.033,0.0328,0.0339,0.0348,0.0356,0.0383,0.033,0.0357,0.0286,0.0254,0.0229,0.0175,0.0159,0.017,0.011,0.0107,0.0118,0.0149,0.0138,0.0139,0.0136,0.0137,0.0138,0.0136,0,0.0327,0.0379,0.0377,0.0431,0.0459,0.0435,0.0459,0.0457,0.0448,0.0464,0.0396,0.0393,0.0301,0.0292,0.026,0.0204,0.0179,0.0175,0.0102,0.0101,0.0095,0.0143,0.014,0.0139,0.0139,0.0139,0.0139,0,0.0372,0.0405,0.047,0.0518,0.053,0.056,0.0601,0.0618,0.0622,0.0615,0.0589,0.0535,0.0502,0.0413,0.0332,0.0335,0.0247,0.019,0.0188,0.0152,0.0095,0.0098,0.0143,-0.0062,0.0143,0.0142,0.0142,0,0.0416,0.047,0.0532,0.0545,0.0593,0.0623,0.065,0.0671,0.0717,0.0717,0.0759,0.068,0.0685,0.0553,0.0422,0.0378,0.0344,0.0265,0.0168,0.0167,0.0138,0.0133,-0.0014,0.0194,0.0194,0.0194,0.0194,0,0.0467,0.0515,0.0564,0.0598,0.0692,0.0692,0.0794,0.0803,0.0855,0.0953,0.0849,0.0915,0.0722,0.0668,0.0494,0.0371,0.0396,0.0199,0.0171,0.0168,0.0166,-0.0037,-0.0146,0.0194,0.0194,0.0194,0.0194,0,0.0515,0.0538,0.062,0.0687,0.072,0.0789,0.09,0.0971,0.1008,0.1132,0.1138,0.1121,0.1062,0.0861,0.0693,0.0509,0.0242,0.0287,0.0307,0.028,-0.0031,-0.0134,-0.0279,-0.0376,0.0175,0.0175,0.0175,0,0.0548,0.0595,0.0697,0.0759,0.0802,0.0905,0.0986,0.1044,0.1136,0.1278,0.1354,0.1338,0.1367,0.1126,0.0791,0.05,0.0279,0.0277,0.0171,-0.0028,-0.0164,-0.0242,-0.0319,0.0169,0.0169,0.0168,0.0168,0,0.0622,0.0658,0.0726,0.0854,0.0953,0.1072,0.1193,0.129,0.1391,0.1518,0.1693,0.1734,0.1527,0.1254,0.0841,0.0617,0.0132,0.0264,0.0049,-0.0178,-0.0262,-0.0374,0.0153,0.0167,0.0167,0.0167,0.0167,0.0167,0.0684,0.0746,0.0834,0.0959,0.1073,0.1224,0.134,0.1484,0.167,0.1886,0.1935,0.2059,0.1636,0.1093,0.0763,0.0132,0.0127,-0.0095,-0.0198,-0.0255,-0.0369,0.0167,0.0148,0.0148,0.0148,0.0148,0.0148,0,0.0754,0.0818,0.0933,0.1078,0.1209,0.1263,0.1468,0.1601,0.1839,0.2062,0.2231,0.2109,0.1575,0.1012,0.0167,-0.0271,-0.0436,-0.0507,-0.0643,-0.07,-0.023,-0.0253,-0.0348,-0.0348,-0.0348,-0.0347,-0.0347,-0.0347,0.0794,0.0897,0.0951,0.1164,0.1274,0.1467,0.1591,0.1809,0.2,0.2276,0.2381,0.2425,0.1965,0.0508,-0.0506,-0.0732,-0.1029,-0.1078,-0.1233,-0.095,-0.0921,-0.0893,-0.0943,-0.1181,-0.1182,-0.1667,-0.1672,-0.1676]}],[{"header":{"parameterUnit":"m.s-1","parameterCategory":2,"la1":30.2991,"la2":30.254,"lo1":-89.0895,"lo2":-89.0444,"dy":0.0017,"dx":0.0017,"nx":28,"ny":28,"refTime":"2024-03-14T09:00:00:Z","depth":"2","parameterNumber":2,"parameterNumberName":"U-component_of_CURRENTS"},"data":[0,0,0,0,0,0,0,0,0,0,0,0,0,0,0,0,0,0,0,0,0,0,0,0,0,0,0,0,0,0,0,0,0,0,0,0,0,0,0,0,0,0,0,0,0,0,0,0,0,0,0,0,0,0,0,0,0,0,0.2436,0.2437,0,0.2486,0.2486,0.2486,0.2492,0.2492,0.2492,0.2492,0.2501,0.2501,0.2501,0,0,0,0,0,0,0,0,0,0,0,0,0,0.237,0.237,0.2436,0.2437,0.2438,0.2486,0.2486,0.2486,0.2492,0.2492,0.2492,0.2492,0.2501,0.2501,0.2501,0,0,0,0,0,0,0,0,0,0,0,0,0,0.2402,0.237,0.2436,0.245,0.2452,0.2486,0.2486,0.2486,0.2492,0.2492,0.2492,0.2492,0.2501,0.2501,0.2501,0.2505,0,0,0.2503,0.2503,0,0,0,0,0,0,0,0,0.24,0.2404,0.2447,0.2449,0.2452,0.2487,0.2466,0.2492,0.2492,0.2472,0.2492,0.2492,0.2496,0.2497,0.25,0.2506,0.2506,0.2503,0.2503,0.2503,0.2503,0,0,0,0,0,0,0,0.2398,0.2402,0.2451,0.2448,0.2451,0.2463,0.2467,0.2471,0.2479,0.2473,0.2475,0.2489,0.2496,0.2499,0.25,0.2506,0.2503,0.2503,0.2503,0.2504,0.2574,0.2576,0,0,0,0,0,0,0.2401,0.24,0.2449,0.2453,0.2431,0.2465,0.2469,0.2472,0.248,0.2483,0.2489,0.2489,0.2498,0.2499,0.25,0.255,0.2503,0.2504,0.2504,0.2572,0.2574,0.2576,0,0,0,0,0,0,0.2399,0.2404,0.2447,0.2432,0.2439,0.2466,0.2469,0.2473,0.2489,0.2493,0.2494,0.2504,0.2498,0.25,0.2518,0.2548,0.2504,0.2504,0.2571,0.2573,0.2575,0.262,0,0,0,0,0,0,0.2396,0.2403,0.2413,0.2432,0.244,0.2474,0.247,0.2474,0.2499,0.25,0.2506,0.2506,0.2498,0.2518,0.2518,0.2548,0.2505,0.2568,0.2572,0.2574,0.2616,0.2624,0.263,0,0,0,0,0,0.2394,0.2404,0.2413,0.242,0.245,0.2476,0.248,0.2496,0.25,0.251,0.2517,0.2506,0.2538,0.2519,0.252,0.255,0.2567,0.2571,0.2574,0.2613,0.2622,0.2629,0,0,0,0,0,0,0.2381,0.2407,0.2417,0.2435,0.246,0.2479,0.2492,0.2506,0.2519,0.2525,0.2519,0.252,0.2554,0.2545,0.2525,0.2582,0.2554,0.2558,0.2584,0.2592,0.2598,0.2612,0.2505,0,0,0,0,0,0.2385,0.2398,0.2426,0.2443,0.2453,0.2475,0.2491,0.2508,0.2523,0.2529,0.2535,0.2548,0.2568,0.2573,0.2588,0.2609,0.2626,0.2633,0.264,0.2645,0.2659,0.2707,0.2719,0.2588,0.2588,0.2588,0,0,0.2388,0.2403,0.2413,0.2442,0.2457,0.2484,0.2483,0.2514,0.254,0.2528,0.2558,0.2573,0.2581,0.2613,0.2627,0.2608,0.2694,0.265,0.2654,0.2665,0.2712,0.2724,0.2736,0.2591,0.259,0.259,0,0,0.2397,0.2409,0.2424,0.2447,0.2484,0.25,0.2513,0.2543,0.2556,0.2588,0.2597,0.2631,0.2645,0.2667,0.2676,0.2729,0.2732,0.2735,0.2772,0.2818,0.2829,0.2839,0.2885,0.2899,0.2732,0.2732,0.2732,0,0.2406,0.2418,0.2434,0.2458,0.2476,0.2508,0.253,0.2556,0.2593,0.2614,0.2604,0.2667,0.2675,0.2726,0.275,0.2745,0.2771,0.2737,0.2827,0.2837,0.2846,0.2891,0.2905,0.2734,0.2734,0.2734,0.2734,0,0.2419,0.2442,0.2451,0.2487,0.2511,0.2535,0.2573,0.2606,0.2627,0.2659,0.2715,0.273,0.2771,0.2782,0.2781,0.2858,0.2856,0.2834,0.2804,0.2862,0.2905,0.292,0.2738,0.2737,0.2736,0.2736,0,0,0.2413,0.2452,0.2458,0.2479,0.2525,0.2548,0.2593,0.2643,0.2688,0.2727,0.278,0.2825,0.2851,0.2866,0.2876,0.2914,0.3007,0.2907,0.2908,0.2949,0.3118,0.3078,0.3089,0.3,0.3002,0.3004,0.3124,0,0.242,0.2456,0.2471,0.2518,0.2541,0.2578,0.2619,0.2679,0.272,0.2787,0.2829,0.289,0.2877,0.291,0.2949,0.3004,0.3046,0.2977,0.3059,0.3062,0.3016,0.3105,0.2859,0.2942,0.3138,0.314,0.3142,0,0.2428,0.2452,0.248,0.2536,0.2548,0.2584,0.2653,0.2699,0.2801,0.2839,0.2909,0.2949,0.3041,0.3006,0.3123,0.3082,0.3111,0.3135,0.3139,0.3097,0.3049,0.2915,0.296,0.3165,0.3163,0.3162,0.316,0,0.2409,0.2462,0.2477,0.2496,0.2563,0.2588,0.2635,0.2723,0.2778,0.2893,0.2953,0.3042,0.3122,0.3162,0.3224,0.3187,0.3341,0.3288,0.3275,0.3272,0.3077,0.3053,0.3363,0.3363,0.3362,0.3362,0.3362,0,0.24,0.2426,0.2477,0.2491,0.2538,0.2591,0.2656,0.2721,0.2829,0.291,0.299,0.3069,0.317,0.326,0.3272,0.3338,0.3384,0.3313,0.3311,0.3087,0.3063,0.3259,0.3245,0.3366,0.3365,0.3365,0.3364,0,0.2376,0.2402,0.2444,0.2508,0.2529,0.2574,0.2672,0.2728,0.2837,0.2946,0.2994,0.3151,0.3273,0.3343,0.3449,0.3422,0.3463,0.3463,0.3202,0.3167,0.3348,0.3336,0.3467,0.3467,0.3467,0.3467,0.3467,0,0.2359,0.2375,0.2447,0.2467,0.2493,0.2563,0.2607,0.2725,0.2784,0.2977,0.3025,0.3205,0.3285,0.3438,0.3447,0.3481,0.3505,0.3259,0.3136,0.338,0.3365,0.3352,0.334,0.2898,0.2893,0.2889,0.2886,0,0.2334,0.2365,0.2389,0.2435,0.2478,0.2525,0.2599,0.2644,0.2784,0.2879,0.3009,0.3096,0.3274,0.3226,0.3304,0.3272,0.3231,0.3182,0.3521,0.2911,0.2853,0.2835,0.2839,0.2852,0.2855,0.2858,0.286,0.2861,0.2314,0.232,0.2351,0.2384,0.2431,0.2451,0.2447,0.2536,0.2612,0.27,0.2871,0.2919,0.301,0.3009,0.2937,0.2901,0.3112,0.2956,0.2964,0.2976,0.289,0.2835,0.2815,0.2818,0.2821,0.2823,0.2826,0,0.2253,0.2261,0.2292,0.23,0.2292,0.2372,0.2401,0.2359,0.2383,0.2529,0.2608,0.2464,0.2478,0.2556,0.2463,0.2484,0.2408,0.237,0.224,0.228,0.2315,0.2188,0.193,0.1927,0.1923,0.192,0,0,0.2216,0.2196,0.2199,0.2145,0.216,0.211,0.2101,0.2067,0.2108,0.2106,0.2144,0.2356,0.2494,0.2168,0.215,0.2018,0.2112,0.1939,0.2672,0.256,0.2588,0.2688,0.2546,0,0,0,0,0]},{"header":{"parameterUnit":"m.s-1","parameterCategory":2,"la1":30.2991,"la2":30.254,"lo1":-89.0895,"lo2":-89.0444,"dy":0.0017,"dx":0.0017,"nx":28,"ny":28,"refTime":"2024-03-14T09:00:00:Z","depth":"2","parameterNumber":3,"parameterNumberName":"V-component_of_CURRENTS"},"data":[0,0,0,0,0,0,0,0,0,0,0,0,0,0,0,0,0,0,0,0,0,0,0,0,0,0,0,0,0,0,0,0,0,0,0,0,0,0,0,0,0,0,0,0,0,0,0,0,0,0,0,0,0,0,0,0,0,0,0.0033,0.0032,0,-0.0019,-0.002,-0.0021,-0.0061,-0.0061,-0.0062,-0.0062,-0.013,-0.0132,-0.0133,0,0,0,0,0,0,0,0,0,0,0,0,0,0.0049,0.0049,0.0033,0.0032,0.0032,-0.0019,-0.002,-0.0021,-0.0061,-0.0061,-0.0062,-0.0062,-0.013,-0.0131,-0.0133,0,0,0,0,0,0,0,0,0,0,0,0,0,0.0023,0.0049,0.0033,0.0007,0.0004,-0.0019,-0.002,-0.0021,-0.0061,-0.0061,-0.0062,-0.0062,-0.0129,-0.0131,-0.0134,-0.014,0,0,-0.0141,-0.0142,0,0,0,0,0,0,0,0,0.0024,0.0022,0.0011,0.0008,0.0005,-0.0033,-0.0039,-0.0061,-0.0061,-0.0038,-0.0062,-0.0062,-0.0098,-0.0103,-0.0113,-0.0143,-0.0146,-0.0141,-0.0142,-0.0143,-0.0144,0,0,0,0,0,0,0,0.0026,0.0024,0.0011,0.001,0.0007,-0.0019,-0.0023,-0.0044,-0.0066,-0.004,-0.0042,-0.0046,-0.01,-0.0111,-0.0115,-0.0147,-0.0141,-0.0143,-0.0144,-0.0145,-0.0189,-0.0189,0,0,0,0,0,0,0.0038,0.0026,0.0013,0.0009,0.0015,-0.0019,-0.0023,-0.0021,-0.0066,-0.0072,-0.0046,-0.0048,-0.0107,-0.0112,-0.0118,-0.0117,-0.0143,-0.0146,-0.0147,-0.019,-0.0189,-0.0189,0,0,0,0,0,0,0.0039,0.0038,0.0015,0.0017,0.0012,-0.0018,-0.0016,-0.0022,-0.0031,-0.007,-0.0077,-0.0047,-0.0107,-0.0115,-0.0131,-0.012,-0.0147,-0.0149,-0.019,-0.0189,-0.0189,-0.0122,0,0,0,0,0,0,0.004,0.0039,0.0043,0.0018,0.0013,0.0011,-0.0016,-0.0023,-0.0032,-0.0035,-0.0074,-0.0081,-0.0108,-0.0127,-0.0133,-0.0124,-0.0151,-0.019,-0.019,-0.0189,-0.0124,-0.0119,-0.0115,0,0,0,0,0,0.0041,0.0054,0.0043,0.0042,0.002,0.0012,0.0007,-0.0018,-0.0031,-0.0029,-0.0056,-0.0079,-0.0129,-0.0128,-0.0136,-0.0127,-0.019,-0.019,-0.0189,-0.0126,-0.012,-0.0115,0,0,0,0,0,0,0.0062,0.005,0.0038,0.0046,0.0033,0.0005,0.0005,-0.0012,-0.0032,-0.0036,-0.0074,-0.0083,-0.0096,-0.012,-0.0119,-0.014,-0.0164,-0.0165,-0.0114,-0.0108,-0.0103,-0.0086,-0.0152,0,0,0,0,0,0.0069,0.0075,0.0058,0.0063,0.006,0.0033,0.0025,0.0011,-0.001,-0.0019,-0.0047,-0.0076,-0.01,-0.011,-0.0136,-0.0142,-0.0169,-0.0143,-0.0139,-0.0134,-0.0126,-0.0158,-0.0155,-0.0187,-0.0187,-0.0187,0,0,0.0077,0.0072,0.0074,0.0068,0.0054,0.0062,0.0028,0.0024,0.0027,-0.0023,-0.0028,-0.0061,-0.0099,-0.0109,-0.0117,-0.0127,-0.014,-0.0134,-0.0129,-0.0123,-0.0157,-0.0154,-0.0151,-0.0187,-0.0187,-0.0187,0,0,0.0103,0.0095,0.011,0.0105,0.0094,0.0083,0.0087,0.0064,0.0051,0.0043,0.0005,-0.0019,-0.0052,-0.0077,-0.0094,-0.0078,-0.0116,-0.0087,-0.0045,-0.0076,-0.0073,-0.0071,-0.0099,-0.01,-0.0081,-0.0081,-0.0081,0,0.0111,0.0131,0.0112,0.0126,0.013,0.01,0.012,0.0104,0.0078,0.0073,0.0051,-0.0,-0.0036,-0.0047,-0.0045,-0.0066,-0.0088,-0.0061,-0.0068,-0.0067,-0.0066,-0.0095,-0.0097,-0.0078,-0.0078,-0.0079,-0.0079,0,0.0149,0.0164,0.0174,0.0186,0.0187,0.0199,0.0182,0.0176,0.0157,0.0139,0.0118,0.0066,0.0038,0.002,-0.0008,-0.0017,-0.0036,-0.006,-0.0079,-0.0058,-0.0091,-0.0094,-0.0073,-0.0074,-0.0075,-0.0076,0,0,0.0174,0.0198,0.0201,0.0221,0.0222,0.0231,0.0238,0.0239,0.0251,0.0209,0.0216,0.016,0.0129,0.0107,0.0064,0.0035,0.0015,-0.0002,-0.0005,-0.0022,-0.0048,-0.007,-0.0076,-0.0008,-0.0008,-0.0008,-0.0072,0,0.021,0.0259,0.0257,0.0303,0.0329,0.0309,0.0325,0.0318,0.0302,0.03,0.0238,0.0226,0.0164,0.0154,0.0114,0.0044,0.001,0.0035,-0.0072,-0.0075,-0.0091,-0.008,-0.0046,-0.0101,-0.0075,-0.0076,-0.0076,0,0.0249,0.028,0.0334,0.0374,0.0383,0.0403,0.0427,0.0438,0.0421,0.0407,0.0376,0.0327,0.028,0.0222,0.0113,0.0134,0.005,-0.0012,-0.0017,-0.0062,-0.0103,-0.0119,-0.0109,-0.0083,-0.0082,-0.0082,-0.0081,0,0.0285,0.0333,0.0382,0.0395,0.0433,0.0449,0.0469,0.047,0.0496,0.0477,0.049,0.0415,0.0392,0.0277,0.0141,0.0129,0.002,-0.0017,-0.0119,-0.0122,-0.0127,-0.0129,-0.01,-0.01,-0.01,-0.01,-0.01,0,0.0328,0.0366,0.0404,0.0431,0.0498,0.05,0.0564,0.0566,0.0586,0.064,0.0553,0.0568,0.0406,0.032,0.0178,0.0028,0.0043,-0.0107,-0.0138,-0.0103,-0.0102,-0.0115,-0.0116,-0.0102,-0.0102,-0.0101,-0.0101,0,0.0357,0.0381,0.0444,0.0495,0.0518,0.0564,0.0639,0.0685,0.0691,0.0756,0.0755,0.0691,0.0583,0.0408,0.0229,0.0091,-0.0064,-0.0126,-0.0072,-0.0096,-0.0195,-0.0192,-0.0244,-0.0245,-0.0246,-0.0247,-0.0248,0,0.0378,0.0413,0.0493,0.054,0.0566,0.0639,0.0699,0.0736,0.0797,0.0838,0.0878,0.0794,0.0755,0.0479,0.0221,-0.0028,-0.0066,-0.0169,-0.0197,-0.0184,-0.0209,-0.0204,-0.0199,-0.0179,-0.0179,-0.0179,-0.0179,0,0.042,0.0444,0.0497,0.0599,0.067,0.0764,0.0851,0.0916,0.0977,0.1031,0.1087,0.1057,0.0801,0.056,0.0209,0.0039,-0.0129,-0.018,-0.0174,-0.0147,-0.0128,-0.0151,-0.0148,-0.018,-0.018,-0.018,-0.018,-0.018,0.045,0.0493,0.0566,0.0664,0.0756,0.0879,0.0971,0.1067,0.1184,0.1277,0.124,0.1206,0.0919,0.0478,0.0172,-0.0146,-0.0135,-0.0245,-0.0242,-0.024,-0.022,-0.0204,-0.0267,-0.0267,-0.0267,-0.0268,-0.0268,0,0.0488,0.0541,0.063,0.0754,0.0865,0.0911,0.1071,0.1162,0.1311,0.138,0.1422,0.1152,0.0871,0.0537,0.0067,-0.0219,-0.0236,-0.0306,-0.0262,-0.0258,-0.0255,-0.0236,-0.0287,-0.0288,-0.0289,-0.029,0,0,0.0512,0.0593,0.0642,0.0825,0.092,0.1084,0.1185,0.1309,0.1395,0.1465,0.1452,0.1387,0.0981,0.0636,0.0249,-0.0018,-0.0072,-0.007,-0.0021,0.0081,0.0087,-0.0184,-0.0145,0,0,0,0,0]}],[{"header":{"parameterUnit":"m.s-1","parameterCategory":2,"la1":30.2991,"la2":30.254,"lo1":-89.0895,"lo2":-89.0444,"dy":0.0017,"dx":0.0017,"nx":28,"ny":28,"refTime":"2024-03-14T09:00:00:Z","depth":"4","parameterNumber":2,"parameterNumberName":"U-component_of_CURRENTS"},"data":[0,0,0,0,0,0,0,0,0,0,0,0,0,0,0,0,0,0,0,0,0,0,0,0,0,0,0,0,0,0,0,0,0,0,0,0,0,0,0,0,0,0,0,0,0,0,0,0,0,0,0,0,0,0,0,0,0,0,0.1501,0.1502,0,0.1583,0.1584,0.1585,0.1644,0.1645,0.1646,0.1646,0.1724,0.1725,0.1727,0,0,0,0,0,0,0,0,0,0,0,0,0,0.1403,0.1404,0.1501,0.1502,0.1503,0.1583,0.1584,0.1585,0.1644,0.1645,0.1646,0.1647,0.1723,0.1725,0.1727,0,0,0,0,0,0,0,0,0,0,0,0,0,0.146,0.1404,0.1501,0.1543,0.1548,0.1582,0.1584,0.1585,0.1644,0.1645,0.1646,0.1647,0.1723,0.1725,0.1727,0.1723,0,0,0.1734,0.1735,0,0,0,0,0,0,0,0,0.1456,0.1463,0.1536,0.1541,0.1546,0.1605,0.1578,0.1631,0.1644,0.1607,0.1646,0.1647,0.1684,0.1689,0.1701,0.1726,0.173,0.1734,0.1736,0.1737,0.1737,0,0,0,0,0,0,0,0.1452,0.146,0.1532,0.1537,0.1543,0.156,0.1569,0.1588,0.1638,0.161,0.1615,0.1625,0.1687,0.1699,0.1704,0.1731,0.1734,0.1736,0.1738,0.1738,0.1853,0.1855,0,0,0,0,0,0,0.1443,0.1456,0.153,0.1535,0.1504,0.1562,0.1572,0.1584,0.1638,0.1648,0.1624,0.1628,0.1695,0.1701,0.1706,0.1789,0.1737,0.1739,0.174,0.1852,0.1854,0.1856,0,0,0,0,0,0,0.1441,0.1449,0.1527,0.1498,0.1509,0.1562,0.1576,0.1586,0.1634,0.1649,0.1659,0.1667,0.1696,0.1703,0.1757,0.1789,0.174,0.1742,0.185,0.1852,0.1855,0.1899,0,0,0,0,0,0,0.1438,0.1448,0.1468,0.1498,0.1511,0.1568,0.1576,0.1587,0.1637,0.1643,0.1688,0.1695,0.1697,0.1754,0.176,0.1791,0.1744,0.1848,0.1851,0.1854,0.1896,0.1903,0.1909,0,0,0,0,0,0.1434,0.1451,0.1468,0.1478,0.1532,0.1569,0.1578,0.1617,0.1639,0.1664,0.17,0.1695,0.1778,0.1757,0.1763,0.1796,0.1846,0.185,0.1854,0.1893,0.1902,0.1909,0,0,0,0,0,0,0.1421,0.146,0.1479,0.1509,0.1548,0.158,0.1611,0.1637,0.1685,0.1703,0.1716,0.1725,0.1785,0.1786,0.1763,0.184,0.1812,0.1817,0.1839,0.1848,0.1854,0.1859,0.1745,0,0,0,0,0,0.1426,0.1452,0.149,0.1519,0.1541,0.1584,0.161,0.1639,0.1678,0.1703,0.1733,0.1767,0.1799,0.1821,0.1847,0.1888,0.1898,0.1914,0.1921,0.1927,0.1936,0.1981,0.1993,0.1868,0.1868,0.1868,0,0,0.1429,0.1455,0.1471,0.1519,0.1554,0.1589,0.1603,0.1655,0.1692,0.1701,0.177,0.1795,0.1817,0.1866,0.1892,0.1875,0.1969,0.1932,0.1936,0.1943,0.1986,0.1998,0.2009,0.1871,0.187,0.187,0,0,0.1438,0.1475,0.1499,0.1534,0.1592,0.1617,0.164,0.1694,0.1731,0.179,0.1809,0.1858,0.1905,0.1927,0.1941,0.2002,0.2005,0.2015,0.2053,0.2097,0.2107,0.2117,0.2146,0.2158,0.2017,0.2017,0.2017,0,0.1445,0.1477,0.1513,0.1547,0.158,0.1633,0.1668,0.1711,0.1778,0.1812,0.1821,0.1914,0.1931,0.199,0.2014,0.2018,0.2042,0.2017,0.2105,0.2115,0.2123,0.2152,0.2164,0.2019,0.2019,0.2019,0.2018,0,0.1464,0.1504,0.1525,0.1582,0.1622,0.1665,0.1722,0.1775,0.1825,0.1864,0.1948,0.198,0.2034,0.2048,0.2052,0.2126,0.2123,0.2109,0.2081,0.2138,0.2165,0.2177,0.2023,0.2022,0.2021,0.2021,0,0,0.1442,0.1521,0.1533,0.1568,0.1647,0.168,0.1749,0.182,0.1877,0.1944,0.2013,0.2074,0.2105,0.2125,0.2143,0.2181,0.2261,0.218,0.2181,0.2203,0.2362,0.2221,0.222,0.2269,0.2271,0.2273,0.2355,0,0.1452,0.1508,0.155,0.1618,0.1652,0.1722,0.178,0.1856,0.1923,0.2004,0.2059,0.2134,0.2131,0.2173,0.2213,0.2256,0.2295,0.224,0.2308,0.231,0.2173,0.223,0.228,0.2363,0.2366,0.2368,0.237,0,0.1452,0.1492,0.1552,0.1638,0.1663,0.1716,0.1824,0.1886,0.2,0.2058,0.214,0.219,0.2276,0.2259,0.2361,0.2332,0.2357,0.2377,0.238,0.2241,0.2191,0.2295,0.2391,0.2389,0.2388,0.2386,0.2385,0,0.1407,0.1493,0.1541,0.1573,0.1676,0.1729,0.1797,0.1908,0.1973,0.2107,0.217,0.2267,0.2336,0.2388,0.2439,0.2416,0.2538,0.2502,0.2396,0.2387,0.2468,0.2457,0.257,0.257,0.257,0.257,0.2569,0,0.1383,0.1427,0.1532,0.1561,0.1632,0.1719,0.1813,0.1894,0.2017,0.2091,0.2204,0.2271,0.2377,0.2452,0.2476,0.2476,0.2571,0.2415,0.2402,0.2485,0.2475,0.2476,0.2464,0.2573,0.2572,0.2571,0.2571,0,0.1318,0.139,0.1452,0.157,0.1612,0.1669,0.1811,0.1868,0.2008,0.2109,0.2159,0.2306,0.2402,0.2483,0.2574,0.2509,0.253,0.2505,0.2604,0.2593,0.2338,0.2328,0.2383,0.2379,0.2375,0.2372,0.237,0,0.1285,0.1311,0.1439,0.1479,0.1538,0.1638,0.1696,0.1846,0.1901,0.2106,0.2133,0.229,0.2369,0.239,0.2483,0.252,0.2492,0.2477,0.2387,0.2339,0.2322,0.2317,0.2312,0.2364,0.2363,0.2362,0.2361,0,0.1213,0.1275,0.1327,0.1404,0.1476,0.1544,0.1642,0.167,0.1836,0.1982,0.2062,0.2129,0.2233,0.2299,0.2353,0.2371,0.2469,0.2439,0.2445,0.236,0.2317,0.2302,0.2301,0.2349,0.2351,0.2352,0.2352,0,0.1164,0.1175,0.1249,0.1312,0.1391,0.1419,0.1491,0.156,0.1642,0.1854,0.1879,0.2057,0.2204,0.2225,0.2276,0.2285,0.2241,0.215,0.2171,0.2185,0.2083,0.1997,0.1929,0,0,0,0,0,0.1097,0.1095,0.1143,0.1196,0.1271,0.132,0.1432,0.1507,0.1664,0.1666,0.1768,0.1859,0.195,0.2047,0.2017,0.2189,0.2246,0.2144,0.215,0.228,0.2295,0.2193,0,0,0,0,0,0,0.1052,0.1081,0.1099,0.1091,0.1105,0.1168,0.1237,0.1348,0.1359,0.1532,0.1594,0.1736,0.1854,0.1946,0.1978,0.2005,0.1968,0.2257,0.2252,0.2272,0.2285,0.2297,0.2197,0,0,0,0,0]},{"header":{"parameterUnit":"m.s-1","parameterCategory":2,"la1":30.2991,"la2":30.254,"lo1":-89.0895,"lo2":-89.0444,"dy":0.0017,"dx":0.0017,"nx":28,"ny":28,"refTime":"2024-03-14T09:00:00:Z","depth":"4","parameterNumber":3,"parameterNumberName":"V-component_of_CURRENTS"},"data":[0,0,0,0,0,0,0,0,0,0,0,0,0,0,0,0,0,0,0,0,0,0,0,0,0,0,0,0,0,0,0,0,0,0,0,0,0,0,0,0,0,0,0,0,0,0,0,0,0,0,0,0,0,0,0,0,0,0,0.0069,0.0069,0,0.0033,0.0032,0.0032,0.0004,0.0004,0.0004,0.0003,-0.0046,-0.0047,-0.0048,0,0,0,0,0,0,0,0,0,0,0,0,0,0.0079,0.0079,0.0069,0.0069,0.0068,0.0033,0.0032,0.0032,0.0004,0.0004,0.0004,0.0003,-0.0045,-0.0047,-0.0048,0,0,0,0,0,0,0,0,0,0,0,0,0,0.0061,0.0079,0.0069,0.0051,0.0049,0.0033,0.0032,0.0032,0.0004,0.0004,0.0004,0.0003,-0.0045,-0.0047,-0.0048,-0.0054,0,0,-0.0054,-0.0054,0,0,0,0,0,0,0,0,0.0062,0.006,0.0054,0.0052,0.005,0.0024,0.0018,0.0003,0.0004,0.002,0.0003,0.0003,-0.0023,-0.0027,-0.0034,-0.0056,-0.0059,-0.0054,-0.0055,-0.0056,-0.0056,0,0,0,0,0,0,0,0.0063,0.0061,0.0054,0.0054,0.0051,0.0033,0.003,0.0014,-0.0001,0.0019,0.0017,0.0015,-0.0024,-0.0032,-0.0035,-0.0059,-0.0054,-0.0055,-0.0056,-0.0057,-0.0092,-0.0092,0,0,0,0,0,0,0.0072,0.0063,0.0055,0.0053,0.0057,0.0033,0.003,0.0031,-0.0,-0.0005,0.0015,0.0013,-0.0029,-0.0033,-0.0037,-0.0036,-0.0056,-0.0057,-0.0058,-0.0092,-0.0092,-0.0092,0,0,0,0,0,0,0.0072,0.0072,0.0056,0.0057,0.0054,0.0033,0.0035,0.0031,0.0025,-0.0003,-0.0008,0.0013,-0.003,-0.0035,-0.0048,-0.0038,-0.0058,-0.006,-0.0092,-0.0092,-0.0092,-0.0039,0,0,0,0,0,0,0.0073,0.0072,0.0076,0.0058,0.0055,0.0053,0.0035,0.003,0.0024,0.0022,-0.0006,-0.0011,-0.003,-0.0045,-0.0049,-0.0041,-0.0061,-0.0092,-0.0092,-0.0092,-0.0041,-0.0037,-0.0034,0,0,0,0,0,0.0073,0.0083,0.0077,0.0076,0.0061,0.0053,0.005,0.0033,0.0024,0.0025,0.0006,-0.001,-0.0047,-0.0046,-0.0051,-0.0043,-0.0092,-0.0092,-0.0092,-0.0043,-0.0038,-0.0034,0,0,0,0,0,0,0.0088,0.0081,0.0073,0.008,0.007,0.0049,0.0049,0.0037,0.0022,0.0021,-0.0007,-0.0014,-0.0023,-0.0041,-0.004,-0.0054,-0.0073,-0.0073,-0.0033,-0.0029,-0.0026,-0.0015,-0.0062,0,0,0,0,0,0.0094,0.01,0.0087,0.0091,0.0089,0.0069,0.0064,0.0054,0.0039,0.0032,0.0011,-0.001,-0.0026,-0.0033,-0.0053,-0.0057,-0.0085,-0.0057,-0.0054,-0.005,-0.0046,-0.008,-0.0079,-0.0091,-0.0091,-0.0091,0,0,0.01,0.0097,0.01,0.0095,0.0085,0.0091,0.0065,0.0063,0.0066,0.0029,0.0025,0.0001,-0.0026,-0.0033,-0.0039,-0.0045,-0.0062,-0.005,-0.0047,-0.0044,-0.008,-0.0078,-0.0077,-0.009,-0.009,-0.009,0,0,0.0119,0.0114,0.0126,0.0123,0.0116,0.0107,0.0109,0.0093,0.0083,0.0077,0.005,0.0031,0.0009,-0.001,-0.0022,-0.0012,-0.0044,-0.0017,0.0015,-0.0018,-0.0018,-0.0017,-0.0051,-0.0054,-0.0012,-0.0011,-0.0011,0,0.0126,0.0141,0.0127,0.0138,0.0142,0.0119,0.0134,0.0122,0.0103,0.0098,0.0083,0.0045,0.0019,0.001,0.0013,-0.0003,-0.0026,0.0003,-0.0013,-0.0013,-0.0014,-0.0048,-0.0052,-0.0009,-0.0009,-0.0009,-0.001,0,0.0153,0.0166,0.0173,0.0183,0.0184,0.0193,0.018,0.0176,0.0163,0.0149,0.0133,0.0094,0.0072,0.006,0.0041,0.0028,0.001,-0.0006,-0.0021,-0.0009,-0.0047,-0.0052,-0.0005,-0.0006,-0.0007,-0.0008,0,0,0.0168,0.019,0.0192,0.0209,0.0211,0.0217,0.0223,0.0222,0.0231,0.02,0.0202,0.0163,0.0139,0.0123,0.0091,0.0063,0.0034,0.0034,0.0031,0.0006,-0.0039,-0.0047,-0.0054,0.0017,0.0016,0.0016,-0.0063,0,0.0194,0.0231,0.0232,0.0268,0.0288,0.0276,0.0288,0.0283,0.0269,0.0264,0.0217,0.0207,0.0164,0.0157,0.0121,0.0057,0.0023,0.0057,-0.0051,-0.0055,-0.0059,-0.0059,0.0014,-0.0068,-0.0069,-0.007,-0.007,0,0.0221,0.0245,0.0286,0.032,0.0328,0.0345,0.0363,0.0372,0.0356,0.0344,0.0317,0.028,0.0235,0.0197,0.0091,0.0116,0.0045,-0.001,-0.0015,-0.0043,-0.0072,-0.0083,-0.008,-0.0079,-0.0079,-0.0078,-0.0077,0,0.0242,0.0282,0.0321,0.0331,0.0364,0.038,0.0397,0.0397,0.0414,0.0396,0.0399,0.0335,0.0307,0.0212,0.0095,0.0094,-0.0026,-0.0045,-0.0122,-0.0124,-0.0115,-0.0115,-0.0122,-0.0122,-0.0121,-0.0121,-0.0121,0,0.0269,0.03,0.0336,0.0358,0.041,0.0417,0.0466,0.0468,0.048,0.051,0.0445,0.0441,0.031,0.0224,0.0113,-0.0019,-0.0018,-0.0117,-0.0143,-0.0092,-0.0088,-0.0119,-0.0118,-0.0124,-0.0124,-0.0123,-0.0122,0,0.0283,0.0307,0.0357,0.0403,0.0423,0.046,0.0521,0.0555,0.0556,0.0589,0.0587,0.0516,0.0405,0.0263,0.0104,0.001,-0.0119,-0.0168,-0.0101,-0.0123,-0.0199,-0.0194,-0.0258,-0.0259,-0.026,-0.026,-0.0261,0,0.0293,0.0321,0.039,0.0429,0.0453,0.0513,0.0561,0.0592,0.063,0.0636,0.0652,0.0559,0.0492,0.0268,0.0108,-0.011,-0.0144,-0.0212,-0.0208,-0.0193,-0.0213,-0.0206,-0.0201,-0.0262,-0.0262,-0.0263,-0.0263,0,0.0314,0.0339,0.0382,0.0464,0.0523,0.0596,0.0663,0.0695,0.0734,0.0731,0.0713,0.0596,0.0465,0.028,0.0107,-0.005,-0.0166,-0.0221,-0.022,-0.0218,-0.0199,-0.0216,-0.021,-0.0266,-0.0265,-0.0265,-0.0265,0,0.033,0.0364,0.0426,0.0498,0.0579,0.0661,0.0692,0.0741,0.078,0.0781,0.0772,0.0629,0.0547,0.031,0.0153,-0.0005,-0.0049,-0.0097,-0.0104,-0.0103,-0.0039,0.0009,-0.0015,0,0,0,0,0,0.0344,0.039,0.0458,0.0545,0.0624,0.0677,0.0757,0.0782,0.0813,0.0813,0.0798,0.0679,0.0448,0.0345,0.0187,0.0118,-0.009,-0.0075,-0.0152,-0.0281,-0.0278,-0.023,0,0,0,0,0,0,0.0357,0.042,0.0461,0.0574,0.0636,0.0735,0.0789,0.0809,0.081,0.0809,0.0691,0.0635,0.0408,0.054,0.0183,0.0133,0.0062,-0.0183,-0.0187,-0.0282,-0.028,-0.0277,-0.0228,0,0,0,0,0]}]]